Tracking 19146 objects as of 23-Apr-2018
HD Live streaming from Space Station
objects crossing your sky now

FENGYUN 1C DEB

Track FENGYUN 1C DEB now!
10-day predictions


NORAD ID: 31286
Int'l Code: 1999-025BNU
Perigee: 822.7 km
Apogee: 974.9 km
Inclination: 100.9 °
Period: 102.8 minutes
Semi major axis: 7269 km
RCS: 0.0136 m2 (small)
Launch date: May 10, 1999
Source: People's Republic of China (PRC)
Launch site: Taiyaun Space Center, China (TSC)

Note: This is SATELLITE DEBRIS
aabbcc
Your satellite tracking list
Your tracking list is empty




NASA's NSSDC Master Catalog

Two Line Element Set (TLE):
1 31286U 99025BNU 18112.26228400 +.00000782 +00000-0 +53946-3 0  9999
2 31286 100.8785 128.7935 0104688 024.9477 335.6690 14.00626547247837
Source of the keplerian elements: AFSPC